SP5EB-3 Weather Reports


time (UTC)temp
C
wind
direction
speed
KPH
gust
KPH
rain 1hr
cm
rain 24hr
cm
rain mn
cm
humidity
%
barometer
mb
20260508073031 10 0 0.0 0.0 0.00 0.00 0.00 1 1014.9
20260508072524 10 0 0.0 0.0 0.00 0.00 0.00 22 1014.9
20260508072017 10 0 0.0 0.0 0.00 0.00 0.00 42 1014.9
20260508071511 10 0 0.0 0.0 0.00 0.00 0.00 20 1014.8
20260508071004 10 0 0.0 0.0 0.00 0.00 0.00 14 1014.8
20260508070457 10 0 0.0 0.0 0.00 0.00 0.00 15 1014.8
20260508064935 10 0 0.0 0.0 0.00 0.00 0.00 70 1014.5
20260508064428 10 0 0.0 0.0 0.00 0.00 0.00 53 1014.6
20260508063921 10 0 0.0 0.0 0.00 0.00 0.00 15 1014.5
20260508063414 10 0 0.0 0.0 0.00 0.00 0.00 65 1014.5
20260508062906 10 0 0.0 0.0 0.00 0.00 0.00 99 1014.5
20260508062359 10 0 0.0 0.0 0.00 0.00 0.00 99 1014.5
20260508061852 10 0 0.0 0.0 0.00 0.00 0.00 99 1014.4
20260508061345 10 0 0.0 0.0 0.00 0.00 0.00 99 1014.3
20260508060838 10 0 0.0 0.0 0.00 0.00 0.00 99 1014.4
20260508060331 10 0 0.0 0.0 0.00 0.00 0.00 99 1014.2
20260508055823 10 0 0.0 0.0 0.00 0.00 0.00 99 1014.2
20260508054810 10 0 0.0 0.0 0.00 0.00 0.00 99 1014.3
20260508054303 10 0 0.0 0.0 0.00 0.00 0.00 99 1014.2
20260508053756 10 0 0.0 0.0 0.00 0.00 0.00 99 1014.2
20260508053249 10 0 0.0 0.0 0.00 0.00 0.00 99 1014.2
20260508052741 10 0 0.0 0.0 0.00 0.00 0.00 99 1014.2
20260508052234 10 0 0.0 0.0 0.00 0.00 0.00 1 1014.0
20260508051727 10 0 0.0 0.0 0.00 0.00 0.00 1 1014.0
20260508051220 10 0 0.0 0.0 0.00 0.00 0.00 1 1014.1
20260508050714 10 0 0.0 0.0 0.00 0.00 0.00 1 1014.0
20260508050207 10 0 0.0 0.0 0.00 0.00 0.00 1 1013.9
20260508045659 10 0 0.0 0.0 0.00 0.00 0.00 1 1013.8
20260508045152 10 0 0.0 0.0 0.00 0.00 0.00 1 1013.8
20260508044645 10 0 0.0 0.0 0.00 0.00 0.00 1 1013.8
20260508044138 10 0 0.0 0.0 0.00 0.00 0.00 1 1013.8
20260508043631 10 0 0.0 0.0 0.00 0.00 0.00 1 1013.8
20260508043125 10 0 0.0 0.0 0.00 0.00 0.00 1 1013.7
20260508042617 10 0 0.0 0.0 0.00 0.00 0.00 99 1013.6
20260508042110 10 0 0.0 0.0 0.00 0.00 0.00 99 1013.7
20260508041603 10 0 0.0 0.0 0.00 0.00 0.00 99 1013.6
20260508041056 10 0 0.0 0.0 0.00 0.00 0.00 99 1013.6
20260508040549 10 0 0.0 0.0 0.00 0.00 0.00 99 1013.7
20260508040042 10 0 0.0 0.0 0.00 0.00 0.00 99 1013.6
20260508035534 10 0 0.0 0.0 0.00 0.00 0.00 99 1013.6
20260508035027 10 0 0.0 0.0 0.00 0.00 0.00 91 1013.7
20260508034520 10 0 0.0 0.0 0.00 0.00 0.00 27 1013.7
20260508034014 10 0 0.0 0.0 0.00 0.00 0.00 1 1013.5
20260508033000 10 0 0.0 0.0 0.00 0.00 0.00 1 1013.6
20260508032452 10 0 0.0 0.0 0.00 0.00 0.00 1 1013.6
20260508031945 10 0 0.0 0.0 0.00 0.00 0.00 1 1013.5
20260508031438 10 0 0.0 0.0 0.00 0.00 0.00 1 1013.6
20260508030931 10 0 0.0 0.0 0.00 0.00 0.00 1 1013.6
20260508030424 10 0 0.0 0.0 0.00 0.00 0.00 1 1013.6
20260508025917 10 0 0.0 0.0 0.00 0.00 0.00 1 1013.5
20260508025409 10 0 0.0 0.0 0.00 0.00 0.00 1 1013.4
20260508024902 10 0 0.0 0.0 0.00 0.00 0.00 1 1013.4
20260508024356 10 0 0.0 0.0 0.00 0.00 0.00 1 1013.4
20260508023849 10 0 0.0 0.0 0.00 0.00 0.00 1 1013.3
20260508023342 10 0 0.0 0.0 0.00 0.00 0.00 1 1013.3
20260508022835 10 0 0.0 0.0 0.00 0.00 0.00 1 1013.3
20260508022327 10 0 0.0 0.0 0.00 0.00 0.00 1 1013.2
20260508021820 10 0 0.0 0.0 0.00 0.00 0.00 1 1013.3
20260508021313 10 0 0.0 0.0 0.00 0.00 0.00 1 1013.4
20260508020806 10 0 0.0 0.0 0.00 0.00 0.00 1 1013.3
20260508020259 10 0 0.0 0.0 0.00 0.00 0.00 1 1013.3
20260508015752 10 0 0.0 0.0 0.00 0.00 0.00 99 1013.4
20260508015244 10 0 0.0 0.0 0.00 0.00 0.00 99 1013.3
20260508014737 10 0 0.0 0.0 0.00 0.00 0.00 99 1013.2
20260508014230 10 0 0.0 0.0 0.00 0.00 0.00 99 1013.3
20260508013723 10 0 0.0 0.0 0.00 0.00 0.00 99 1013.2
20260508013216 10 0 0.0 0.0 0.00 0.00 0.00 99 1013.3
20260508012710 10 0 0.0 0.0 0.00 0.00 0.00 99 1013.2
20260508012201 10 0 0.0 0.0 0.00 0.00 0.00 99 1013.3
20260508011655 10 0 0.0 0.0 0.00 0.00 0.00 99 1013.2
20260508011148 10 0 0.0 0.0 0.00 0.00 0.00 99 1013.3
20260508010641 10 0 0.0 0.0 0.00 0.00 0.00 99 1013.3
20260508010134 10 0 0.0 0.0 0.00 0.00 0.00 99 1013.1
20260508005627 11 0 0.0 0.0 0.00 0.00 0.00 99 1013.3
20260508005119 11 0 0.0 0.0 0.00 0.00 0.00 99 1013.3
20260508004612 11 0 0.0 0.0 0.00 0.00 0.00 99 1013.1
20260508004105 11 0 0.0 0.0 0.00 0.00 0.00 99 1013.0
20260508003558 11 0 0.0 0.0 0.00 0.00 0.00 1 1013.1
20260508003051 11 0 0.0 0.0 0.00 0.00 0.00 1 1013.2
20260508002544 11 0 0.0 0.0 0.00 0.00 0.00 1 1013.1
20260508002036 11 0 0.0 0.0 0.00 0.00 0.00 1 1013.2
20260508001529 11 0 0.0 0.0 0.00 0.00 0.00 1 1013.1
20260508001022 11 0 0.0 0.0 0.00 0.00 0.00 1 1013.2
20260508000515 11 0 0.0 0.0 0.00 0.00 0.00 1 1013.2
20260507235501 11 0 0.0 0.0 0.00 0.00 0.00 1 1013.1
20260507234953 11 0 0.0 0.0 0.00 0.00 0.00 1 1013.0
20260507234446 11 0 0.0 0.0 0.00 0.00 0.00 1 1013.0
20260507233939 11 0 0.0 0.0 0.00 0.00 0.00 1 1013.0
20260507233432 11 0 0.0 0.0 0.00 0.00 0.00 1 1013.0
20260507232925 11 0 0.0 0.0 0.00 0.00 0.00 1 1013.0
20260507232418 11 0 0.0 0.0 0.00 0.00 0.00 1 1013.0
20260507231909 11 0 0.0 0.0 0.00 0.00 0.00 1 1013.1
20260507231402 11 0 0.0 0.0 0.00 0.00 0.00 1 1013.1
20260507230855 11 0 0.0 0.0 0.00 0.00 0.00 1 1013.1
20260507230348 11 0 0.0 0.0 0.00 0.00 0.00 1 1013.1
20260507225841 11 0 0.0 0.0 0.00 0.00 0.00 1 1013.1
20260507225334 11 0 0.0 0.0 0.00 0.00 0.00 1 1013.1
20260507224319 11 0 0.0 0.0 0.00 0.00 0.00 1 1013.0
20260507223812 11 0 0.0 0.0 0.00 0.00 0.00 1 1013.0
20260507223305 11 0 0.0 0.0 0.00 0.00 0.00 1 1013.0
20260507222758 11 0 0.0 0.0 0.00 0.00 0.00 1 1013.0
20260507222251 11 0 0.0 0.0 0.00 0.00 0.00 1 1013.0
20260507221743 11 0 0.0 0.0 0.00 0.00 0.00 99 1012.9
20260507221236 11 0 0.0 0.0 0.00 0.00 0.00 99 1012.9
20260507220222 11 0 0.0 0.0 0.00 0.00 0.00 99 1012.7
20260507215715 11 0 0.0 0.0 0.00 0.00 0.00 99 1012.7
20260507215207 11 0 0.0 0.0 0.00 0.00 0.00 99 1012.7
20260507214659 11 0 0.0 0.0 0.00 0.00 0.00 99 1012.7
20260507213645 12 0 0.0 0.0 0.00 0.00 0.00 99 1012.6
20260507213138 12 0 0.0 0.0 0.00 0.00 0.00 99 1012.6
20260507212631 12 0 0.0 0.0 0.00 0.00 0.00 99 1012.6
20260507212124 12 0 0.0 0.0 0.00 0.00 0.00 99 1012.7
20260507211615 12 0 0.0 0.0 0.00 0.00 0.00 99 1012.6
20260507211108 12 0 0.0 0.0 0.00 0.00 0.00 99 1012.5
20260507210601 12 0 0.0 0.0 0.00 0.00 0.00 99 1012.5
20260507210054 12 0 0.0 0.0 0.00 0.00 0.00 99 1012.4
20260507205547 12 0 0.0 0.0 0.00 0.00 0.00 99 1012.4
20260507205040 12 0 0.0 0.0 0.00 0.00 0.00 99 1012.4
20260507204531 12 0 0.0 0.0 0.00 0.00 0.00 99 1012.4
20260507204024 12 0 0.0 0.0 0.00 0.00 0.00 99 1012.5
20260507203517 12 0 0.0 0.0 0.00 0.00 0.00 99 1012.4
20260507203010 12 0 0.0 0.0 0.00 0.00 0.00 99 1012.4
20260507202503 12 0 0.0 0.0 0.00 0.00 0.00 99 1012.4
20260507201447 12 0 0.0 0.0 0.00 0.00 0.00 99 1012.5
20260507200940 12 0 0.0 0.0 0.00 0.00 0.00 99 1012.5
20260507200433 12 0 0.0 0.0 0.00 0.00 0.00 99 1012.5
20260507195926 12 0 0.0 0.0 0.00 0.00 0.00 99 1012.5
20260507195418 12 0 0.0 0.0 0.00 0.00 0.00 99 1012.4
20260507194911 12 0 0.0 0.0 0.00 0.00 0.00 99 1012.4
20260507194403 12 0 0.0 0.0 0.00 0.00 0.00 99 1012.4
20260507193856 12 0 0.0 0.0 0.00 0.00 0.00 99 1012.4
20260507193348 12 0 0.0 0.0 0.00 0.00 0.00 99 1012.2
20260507192841 12 0 0.0 0.0 0.00 0.00 0.00 99 1012.1
20260507192334 12 0 0.0 0.0 0.00 0.00 0.00 99 1012.1
20260507191827 12 0 0.0 0.0 0.00 0.00 0.00 99 1012.1
20260507191319 12 0 0.0 0.0 0.00 0.00 0.00 99 1012.1
20260507190811 12 0 0.0 0.0 0.00 0.00 0.00 99 1012.0
20260507190304 12 0 0.0 0.0 0.00 0.00 0.00 99 1011.8
20260507185757 12 0 0.0 0.0 0.00 0.00 0.00 99 1011.8
20260507185250 12 0 0.0 0.0 0.00 0.00 0.00 99 1011.7
20260507184743 12 0 0.0 0.0 0.00 0.00 0.00 99 1011.6
20260507184234 12 0 0.0 0.0 0.00 0.00 0.00 99 1011.7
20260507183220 12 0 0.0 0.0 0.00 0.00 0.00 99 1011.7
20260507182713 12 0 0.0 0.0 0.00 0.00 0.00 99 1011.7
20260507182205 12 0 0.0 0.0 0.00 0.00 0.00 99 1011.7
20260507181658 12 0 0.0 0.0 0.00 0.00 0.00 92 1011.7
20260507181150 12 0 0.0 0.0 0.00 0.00 0.00 84 1011.6
20260507180642 12 0 0.0 0.0 0.00 0.00 0.00 56 1011.6
20260507180135 13 0 0.0 0.0 0.00 0.00 0.00 28 1011.4
20260507175628 13 0 0.0 0.0 0.00 0.00 0.00 15 1011.5
20260507175121 13 0 0.0 0.0 0.00 0.00 0.00 19 1011.5
20260507174105 13 0 0.0 0.0 0.00 0.00 0.00 7 1011.4
20260507173558 13 0 0.0 0.0 0.00 0.00 0.00 1 1011.3
20260507172543 13 0 0.0 0.0 0.00 0.00 0.00 1 1011.0
20260507172036 13 0 0.0 0.0 0.00 0.00 0.00 1 1010.9
20260507171528 13 0 0.0 0.0 0.00 0.00 0.00 1 1010.9
20260507171020 13 0 0.0 0.0 0.00 0.00 0.00 1 1010.7
20260507170512 14 0 0.0 0.0 0.00 0.00 0.00 1 1010.6
20260507170005 14 0 0.0 0.0 0.00 0.00 0.00 1 1010.5
20260507165457 14 0 0.0 0.0 0.00 0.00 0.00 1 1010.5
20260507164950 15 0 0.0 0.0 0.00 0.00 0.00 1 1010.6
20260507164442 15 0 0.0 0.0 0.00 0.00 0.00 1 1010.5
20260507163934 15 0 0.0 0.0 0.00 0.00 0.00 1 1010.5
20260507163426 15 0 0.0 0.0 0.00 0.00 0.00 1 1010.4
20260507162919 15 0 0.0 0.0 0.00 0.00 0.00 1 1010.4
20260507162411 15 0 0.0 0.0 0.00 0.00 0.00 1 1010.4
20260507161903 15 0 0.0 0.0 0.00 0.00 0.00 1 1010.4
20260507161356 15 0 0.0 0.0 0.00 0.00 0.00 1 1010.6
20260507160340 15 0 0.0 0.0 0.00 0.00 0.00 1 1010.5
20260507155832 15 0 0.0 0.0 0.00 0.00 0.00 1 1010.6
20260507154817 15 0 0.0 0.0 0.00 0.00 0.00 1 1010.6
20260507154309 15 0 0.0 0.0 0.00 0.00 0.00 1 1010.6
20260507153800 15 0 0.0 0.0 0.00 0.00 0.00 1 1010.6
20260507153253 15 0 0.0 0.0 0.00 0.00 0.00 1 1010.4
20260507152238 15 0 0.0 0.0 0.00 0.00 0.00 1 1010.5
20260507151730 15 0 0.0 0.0 0.00 0.00 0.00 1 1010.6
20260507151222 15 0 0.0 0.0 0.00 0.00 0.00 1 1010.5
20260507150714 15 0 0.0 0.0 0.00 0.00 0.00 1 1010.5
20260507150206 15 0 0.0 0.0 0.00 0.00 0.00 1 1010.5
20260507145659 15 0 0.0 0.0 0.00 0.00 0.00 1 1010.5
20260507145151 15 0 0.0 0.0 0.00 0.00 0.00 1 1010.5
20260507144643 15 0 0.0 0.0 0.00 0.00 0.00 1 1010.6
20260507144136 15 0 0.0 0.0 0.00 0.00 0.00 1 1010.5
20260507143627 15 0 0.0 0.0 0.00 0.00 0.00 1 1010.5
20260507143119 15 0 0.0 0.0 0.00 0.00 0.00 1 1010.5
20260507142612 15 0 0.0 0.0 0.00 0.00 0.00 1 1010.4
20260507142104 15 0 0.0 0.0 0.00 0.00 0.00 1 1010.3
20260507141556 15 0 0.0 0.0 0.00 0.00 0.00 1 1010.3
20260507141049 15 0 0.0 0.0 0.00 0.00 0.00 1 1010.3
20260507140540 15 0 0.0 0.0 0.00 0.00 0.00 1 1010.3
20260507135525 15 0 0.0 0.0 0.00 0.00 0.00 1 1010.2
20260507135017 15 0 0.0 0.0 0.00 0.00 0.00 47 1010.1
20260507134510 15 0 0.0 0.0 0.00 0.00 0.00 29 1010.0
20260507133453 15 0 0.0 0.0 0.00 0.00 0.00 29 1010.1
20260507132946 15 0 0.0 0.0 0.00 0.00 0.00 36 1010.1
20260507132438 15 0 0.0 0.0 0.00 0.00 0.00 35 1010.1
20260507131931 15 0 0.0 0.0 0.00 0.00 0.00 40 1010.1
20260507131423 15 0 0.0 0.0 0.00 0.00 0.00 99 1010.1
20260507130915 15 0 0.0 0.0 0.00 0.00 0.00 99 1010.1
20260507130407 15 0 0.0 0.0 0.00 0.00 0.00 99 1010.0
20260507125859 15 0 0.0 0.0 0.00 0.00 0.00 99 1010.0
20260507125352 15 0 0.0 0.0 0.00 0.00 0.00 99 1010.0
20260507124844 15 0 0.0 0.0 0.00 0.00 0.00 99 1010.0
20260507124337 15 0 0.0 0.0 0.00 0.00 0.00 99 1010.0
20260507123829 15 0 0.0 0.0 0.00 0.00 0.00 99 1010.0
20260507123321 14 0 0.0 0.0 0.00 0.00 0.00 99 1010.1
20260507122813 14 0 0.0 0.0 0.00 0.00 0.00 99 1010.0
20260507122307 14 0 0.0 0.0 0.00 0.00 0.00 99 1009.9
20260507121758 14 0 0.0 0.0 0.00 0.00 0.00 99 1009.9
20260507121251 14 0 0.0 0.0 0.00 0.00 0.00 99 1009.9
20260507120744 14 0 0.0 0.0 0.00 0.00 0.00 99 1010.0
20260507120235 14 0 0.0 0.0 0.00 0.00 0.00 99 1010.0
20260507115727 14 0 0.0 0.0 0.00 0.00 0.00 99 1010.0
20260507115220 15 0 0.0 0.0 0.00 0.00 0.00 99 1010.2
20260507114712 15 0 0.0 0.0 0.00 0.00 0.00 99 1010.1
20260507114205 15 0 0.0 0.0 0.00 0.00 0.00 99 1010.1
20260507113657 15 0 0.0 0.0 0.00 0.00 0.00 99 1010.0
20260507113149 15 0 0.0 0.0 0.00 0.00 0.00 99 1010.1
20260507112134 15 0 0.0 0.0 0.00 0.00 0.00 99 1009.8
20260507111626 14 0 0.0 0.0 0.00 0.00 0.00 99 1009.7
20260507111119 14 0 0.0 0.0 0.00 0.00 0.00 99 1009.6
20260507105555 13 0 0.0 0.0 0.00 0.00 0.00 99 1009.5
20260507105048 13 0 0.0 0.0 0.00 0.00 0.00 99 1009.4
20260507104541 12 0 0.0 0.0 0.00 0.00 0.00 1 1009.3
20260507104034 12 0 0.0 0.0 0.00 0.00 0.00 1 1009.3
20260507103526 12 0 0.0 0.0 0.00 0.00 0.00 57 1009.3
20260507103018 12 0 0.0 0.0 0.00 0.00 0.00 99 1009.3
20260507102511 12 0 0.0 0.0 0.00 0.00 0.00 99 1009.2
20260507102004 12 0 0.0 0.0 0.00 0.00 0.00 99 1009.2
20260507101457 12 0 0.0 0.0 0.00 0.00 0.00 99 1009.1
20260507100442 12 0 0.0 0.0 0.00 0.00 0.00 1 1009.1
20260507095427 12 0 0.0 0.0 0.00 0.00 0.00 1 1008.9
20260507094920 12 0 0.0 0.0 0.00 0.00 0.00 1 1008.9
20260507094412 12 0 0.0 0.0 0.00 0.00 0.00 1 1008.9
20260507093905 12 0 0.0 0.0 0.00 0.00 0.00 1 1008.8
20260507092850 12 0 0.0 0.0 0.00 0.00 0.00 1 1008.6
20260507092343 12 0 0.0 0.0 0.00 0.00 0.00 1 1008.6
20260507091835 12 0 0.0 0.0 0.00 0.00 0.00 99 1008.5
20260507091328 12 0 0.0 0.0 0.00 0.00 0.00 1 1008.4
20260507090821 12 0 0.0 0.0 0.00 0.00 0.00 1 1008.4
20260507090314 12 0 0.0 0.0 0.00 0.00 0.00 99 1008.3
20260507085805 12 0 0.0 0.0 0.00 0.00 0.00 1 1008.2
20260507085258 12 0 0.0 0.0 0.00 0.00 0.00 1 1008.3
20260507084751 12 0 0.0 0.0 0.00 0.00 0.00 56 1008.1
20260507084244 12 0 0.0 0.0 0.00 0.00 0.00 63 1008.1
20260507083736 13 0 0.0 0.0 0.00 0.00 0.00 23 1008.1
20260507083229 13 0 0.0 0.0 0.00 0.00 0.00 1 1008.0
20260507082721 13 0 0.0 0.0 0.00 0.00 0.00 1 1007.9
20260507081706 13 0 0.0 0.0 0.00 0.00 0.00 1 1007.8
20260507081159 13 0 0.0 0.0 0.00 0.00 0.00 99 1007.7
20260507080144 13 0 0.0 0.0 0.00 0.00 0.00 99 1007.5
20260507075636 13 0 0.0 0.0 0.00 0.00 0.00 99 1007.6
20260507074621 13 0 0.0 0.0 0.00 0.00 0.00 99 1007.6
20260507074114 14 0 0.0 0.0 0.00 0.00 0.00 1 1007.4
20260507073606 14 0 0.0 0.0 0.00 0.00 0.00 1 1007.4
20260507073353 15 0 0.0 0.0 0.00 0.00 0.00 1 1007.2